Location: Unspecified
(0.0000°N, 0.0000°E)
Time: 13:09:03
(UTC+00:00)

Transit 2A - Pass Details

Date: 28 May 2019
Orbit: 593 x 966 km, 66.7° (Epoch: 16 June)

Event Time Altitude Azimuth Distance (km) Brightness Sun altitude
Rises 04:05:33 0° 181° (S) 3,265 - -25.8°
Reaches altitude 10° 04:08:05 10° 172° (S) 2,396 - -25.3°
Exits shadow 04:08:38 13° 169° (SSE) 2,223 8.3 -25.1°
Maximum altitude 04:13:04 33° 108° (ESE) 1,403 7.7 -24.1°
Drops below altitude 10° 04:18:25 10° 46° (NE) 2,595 9.7 -22.9°
Sets 04:21:15 0° 37° (NE) 3,576 10.4 -22.2°
